| time (UTC) | temp F | wind direction | speed MPH | gust MPH | rain 1hr in | rain 24hr in | rain mn in | humidity % | barometer mb |
| 20260506023903 | 48 | 179 | 4.0 | 6.0 | 0.00 | 0.13 | 0.02 | 98 | 1014.4 |
| 20260506023403 | 48 | 177 | 4.0 | 7.0 | 0.00 | 0.13 | 0.02 | 98 | 1014.4 |
| 20260506022903 | 48 | 167 | 5.0 | 7.0 | 0.00 | 0.13 | 0.02 | 98 | 1014.4 |
| 20260506022403 | 48 | 200 | 4.0 | 9.0 | 0.00 | 0.13 | 0.02 | 98 | 1014.4 |
| 20260506021903 | 49 | 187 | 5.0 | 7.0 | 0.00 | 0.13 | 0.02 | 98 | 1014.4 |
| 20260506020903 | 49 | 197 | 2.0 | 5.0 | 0.00 | 0.13 | 0.02 | 98 | 1014.4 |
| 20260506020403 | 49 | 197 | 4.0 | 6.0 | 0.00 | 0.13 | 0.02 | 98 | 1014.4 |
| 20260506015903 | 49 | 214 | 3.0 | 5.0 | 0.00 | 0.13 | 0.02 | 98 | 1014.4 |
| 20260506015403 | 49 | 215 | 3.0 | 5.0 | 0.00 | 0.13 | 0.02 | 98 | 1014.4 |
| 20260506014403 | 49 | 217 | 2.0 | 5.0 | 0.00 | 0.13 | 0.02 | 98 | 1014.5 |
| 20260506013903 | 49 | 219 | 3.0 | 5.0 | 0.00 | 0.13 | 0.02 | 98 | 1014.7 |
| 20260506013403 | 49 | 238 | 2.0 | 3.0 | 0.00 | 0.13 | 0.02 | 98 | 1014.7 |
| 20260506012903 | 49 | 230 | 1.0 | 3.0 | 0.00 | 0.13 | 0.02 | 98 | 1014.6 |
| 20260506011903 | 49 | 230 | 3.0 | 6.0 | 0.00 | 0.13 | 0.02 | 98 | 1014.8 |
| 20260506011403 | 49 | 231 | 1.0 | 3.0 | 0.00 | 0.13 | 0.02 | 98 | 1014.8 |
| 20260506010903 | 49 | 231 | 1.0 | 3.0 | 0.00 | 0.13 | 0.02 | 98 | 1014.8 |
| 20260506010403 | 49 | 231 | 3.0 | 3.0 | 0.01 | 0.13 | 0.02 | 98 | 1014.9 |
| 20260506005903 | 49 | 246 | 3.0 | 3.0 | 0.01 | 0.13 | 0.02 | 98 | 1015.0 |
| 20260506004903 | 50 | 246 | 0.0 | 3.0 | 0.01 | 0.13 | 0.02 | 98 | 1015.0 |
| 20260506004403 | 50 | 247 | 0.0 | 2.0 | 0.01 | 0.13 | 0.02 | 98 | 1015.1 |
| 20260506003903 | 50 | 247 | 0.0 | 1.0 | 0.01 | 0.13 | 0.02 | 98 | 1015.2 |
| 20260506003403 | 50 | 247 | 0.0 | 1.0 | 0.01 | 0.13 | 0.02 | 98 | 1015.2 |
| 20260506002903 | 50 | 246 | 0.0 | 2.0 | 0.01 | 0.13 | 0.02 | 98 | 1015.2 |
| 20260506002403 | 50 | 246 | 1.0 | 3.0 | 0.01 | 0.13 | 0.02 | 98 | 1015.3 |
| 20260506001403 | 50 | 211 | 2.0 | 3.0 | 0.01 | 0.13 | 0.02 | 98 | 1015.3 |
| 20260506000903 | 50 | 201 | 0.0 | 0.0 | 0.01 | 0.13 | 0.02 | 98 | 1015.3 |
| 20260506000403 | 50 | 201 | 1.0 | 3.0 | 0.00 | 0.12 | 0.01 | 98 | 1015.3 |
| 20260505235903 | 50 | 198 | 0.0 | 0.0 | 0.01 | 0.12 | 0.01 | 98 | 1015.3 |
| 20260505235403 | 50 | 198 | 0.0 | 0.0 | 0.01 | 0.12 | 0.01 | 98 | 1015.3 |
| 20260505234903 | 50 | 198 | 1.0 | 3.0 | 0.01 | 0.12 | 0.01 | 98 | 1015.4 |
| 20260505234403 | 50 | 198 | 2.0 | 5.0 | 0.01 | 0.12 | 0.01 | 98 | 1015.4 |
| 20260505233903 | 50 | 199 | 3.0 | 7.0 | 0.01 | 0.12 | 0.01 | 98 | 1015.4 |
| 20260505232903 | 50 | 183 | 3.0 | 6.0 | 0.01 | 0.12 | 0.01 | 98 | 1015.4 |
| 20260505232403 | 50 | 196 | 1.0 | 3.0 | 0.01 | 0.12 | 0.01 | 98 | 1015.4 |
| 20260505231903 | 50 | 198 | 3.0 | 6.0 | 0.01 | 0.12 | 0.01 | 98 | 1015.4 |
| 20260505231403 | 50 | 203 | 5.0 | 7.0 | 0.01 | 0.12 | 0.01 | 98 | 1015.4 |
| 20260505230403 | 50 | 187 | 3.0 | 5.0 | 0.01 | 0.12 | 0.01 | 98 | 1015.4 |
| 20260505225903 | 50 | 187 | 5.0 | 6.0 | 0.00 | 0.11 | 0.00 | 98 | 1015.5 |
| 20260505225403 | 50 | 188 | 4.0 | 6.0 | 0.00 | 0.11 | 0.00 | 98 | 1015.6 |
| 20260505224903 | 50 | 188 | 1.0 | 5.0 | 0.00 | 0.11 | 0.00 | 98 | 1015.6 |
| 20260505223403 | 50 | 188 | 5.0 | 6.0 | 0.00 | 0.11 | 0.00 | 98 | 1015.6 |
| 20260505222403 | 50 | 163 | 5.0 | 7.0 | 0.00 | 0.11 | 0.00 | 97 | 1015.5 |
| 20260505220903 | 50 | 171 | 5.0 | 7.0 | 0.00 | 0.11 | 0.00 | 97 | 1015.6 |
| 20260505220403 | 50 | 167 | 5.0 | 7.0 | 0.00 | 0.11 | 0.00 | 97 | 1015.6 |
| 20260505215903 | 50 | 164 | 3.0 | 6.0 | 0.00 | 0.11 | 0.11 | 97 | 1015.6 |
| 20260505215403 | 50 | 166 | 4.0 | 6.0 | 0.00 | 0.11 | 0.11 | 97 | 1015.6 |
| 20260505214903 | 50 | 169 | 2.0 | 5.0 | 0.00 | 0.11 | 0.11 | 97 | 1015.6 |
| 20260505214403 | 50 | 163 | 3.0 | 6.0 | 0.00 | 0.11 | 0.11 | 97 | 1015.7 |
| 20260505213903 | 50 | 171 | 3.0 | 8.0 | 0.00 | 0.11 | 0.11 | 97 | 1015.7 |
| 20260505213403 | 50 | 175 | 5.0 | 8.0 | 0.00 | 0.11 | 0.11 | 97 | 1015.8 |
| 20260505212903 | 50 | 175 | 5.0 | 7.0 | 0.00 | 0.11 | 0.11 | 97 | 1015.7 |
| 20260505212403 | 50 | 180 | 5.0 | 8.0 | 0.00 | 0.11 | 0.11 | 97 | 1015.8 |
| 20260505211903 | 50 | 165 | 5.0 | 9.0 | 0.00 | 0.11 | 0.11 | 96 | 1015.8 |
| 20260505211404 | 50 | 181 | 6.0 | 8.0 | 0.00 | 0.11 | 0.11 | 96 | 1015.8 |
| 20260505210903 | 50 | 173 | 4.0 | 8.0 | 0.00 | 0.11 | 0.11 | 96 | 1015.7 |
| 20260505210403 | 50 | 173 | 6.0 | 10.0 | 0.00 | 0.11 | 0.11 | 96 | 1015.7 |
| 20260505205904 | 51 | 185 | 5.0 | 9.0 | 0.00 | 0.11 | 0.11 | 96 | 1015.6 |
| 20260505205403 | 51 | 181 | 6.0 | 8.0 | 0.00 | 0.11 | 0.11 | 96 | 1015.6 |
| 20260505204903 | 51 | 177 | 3.0 | 7.0 | 0.00 | 0.11 | 0.11 | 96 | 1015.5 |
| 20260505204403 | 51 | 174 | 4.0 | 8.0 | 0.00 | 0.11 | 0.11 | 96 | 1015.5 |
| 20260505203903 | 51 | 171 | 5.0 | 7.0 | 0.00 | 0.11 | 0.11 | 96 | 1015.6 |
| 20260505203403 | 51 | 180 | 4.0 | 7.0 | 0.00 | 0.11 | 0.11 | 96 | 1015.6 |
| 20260505202903 | 51 | 173 | 4.0 | 7.0 | 0.00 | 0.11 | 0.11 | 95 | 1015.6 |
| 20260505202403 | 51 | 176 | 5.0 | 9.0 | 0.00 | 0.11 | 0.11 | 95 | 1015.4 |
| 20260505201904 | 51 | 173 | 5.0 | 8.0 | 0.00 | 0.11 | 0.11 | 95 | 1015.4 |
| 20260505201403 | 51 | 175 | 6.0 | 8.0 | 0.00 | 0.11 | 0.11 | 95 | 1015.3 |
| 20260505200903 | 52 | 173 | 4.0 | 6.0 | 0.00 | 0.11 | 0.11 | 94 | 1015.2 |
| 20260505200403 | 52 | 181 | 3.0 | 5.0 | 0.00 | 0.11 | 0.11 | 94 | 1015.2 |
| 20260505195903 | 52 | 181 | 0.0 | 3.0 | 0.00 | 0.11 | 0.11 | 94 | 1015.1 |
| 20260505195403 | 52 | 180 | 2.0 | 5.0 | 0.00 | 0.11 | 0.11 | 93 | 1015.1 |
| 20260505194903 | 52 | 182 | 2.0 | 3.0 | 0.00 | 0.11 | 0.11 | 93 | 1015.1 |
| 20260505194403 | 52 | 181 | 0.0 | 3.0 | 0.00 | 0.12 | 0.11 | 93 | 1015.0 |
| 20260505193403 | 52 | 178 | 3.0 | 5.0 | 0.00 | 0.16 | 0.11 | 92 | 1014.9 |
| 20260505192903 | 52 | 179 | 3.0 | 5.0 | 0.00 | 0.17 | 0.11 | 92 | 1014.8 |
| 20260505192404 | 53 | 177 | 3.0 | 5.0 | 0.00 | 0.20 | 0.11 | 91 | 1014.8 |
| 20260505191903 | 53 | 190 | 3.0 | 5.0 | 0.00 | 0.22 | 0.11 | 91 | 1014.8 |
| 20260505191403 | 53 | 184 | 3.0 | 5.0 | 0.00 | 0.23 | 0.11 | 90 | 1014.7 |
| 20260505190903 | 54 | 202 | 2.0 | 5.0 | 0.00 | 0.23 | 0.11 | 88 | 1014.7 |
| 20260505190403 | 55 | 333 | 0.0 | 2.0 | 0.00 | 0.24 | 0.11 | 88 | 1014.7 |
| 20260505185903 | 55 | 251 | 0.0 | 2.0 | 0.00 | 0.24 | 0.11 | 89 | 1014.7 |
| 20260505185403 | 54 | 71 | 4.0 | 10.0 | 0.00 | 0.24 | 0.11 | 89 | 1014.8 |
| 20260505184903 | 54 | 281 | 1.0 | 6.0 | 0.00 | 0.24 | 0.11 | 91 | 1014.7 |
| 20260505183403 | 53 | 158 | 0.0 | 0.0 | 0.00 | 0.24 | 0.11 | 92 | 1014.7 |
| 20260505182903 | 53 | 156 | 3.0 | 6.0 | 0.00 | 0.25 | 0.11 | 92 | 1014.6 |
| 20260505181903 | 53 | 164 | 5.0 | 9.0 | 0.00 | 0.26 | 0.11 | 91 | 1014.5 |
| 20260505181403 | 53 | 157 | 6.0 | 10.0 | 0.00 | 0.27 | 0.11 | 91 | 1014.5 |
| 20260505180903 | 53 | 164 | 5.0 | 15.0 | 0.00 | 0.27 | 0.11 | 90 | 1014.4 |
| 20260505175903 | 54 | 175 | 9.0 | 13.0 | 0.00 | 0.28 | 0.11 | 88 | 1014.3 |
| 20260505174403 | 54 | 160 | 4.0 | 6.0 | 0.00 | 0.30 | 0.11 | 88 | 1014.3 |
| 20260505173903 | 54 | 161 | 4.0 | 8.0 | 0.00 | 0.30 | 0.11 | 88 | 1014.3 |
| 20260505173404 | 54 | 165 | 3.0 | 7.0 | 0.00 | 0.31 | 0.11 | 88 | 1014.4 |
| 20260505172404 | 54 | 159 | 4.0 | 8.0 | 0.00 | 0.31 | 0.11 | 89 | 1014.4 |
| 20260505171903 | 54 | 168 | 4.0 | 7.0 | 0.00 | 0.32 | 0.11 | 89 | 1014.4 |
| 20260505171403 | 54 | 157 | 3.0 | 6.0 | 0.00 | 0.33 | 0.11 | 90 | 1014.4 |
| 20260505170903 | 54 | 153 | 2.0 | 9.0 | 0.00 | 0.34 | 0.11 | 90 | 1014.4 |
| 20260505170403 | 54 | 162 | 6.0 | 9.0 | 0.00 | 0.34 | 0.11 | 90 | 1014.3 |
| 20260505165903 | 54 | 135 | 5.0 | 9.0 | 0.00 | 0.35 | 0.11 | 90 | 1014.3 |
| 20260505165404 | 53 | 156 | 3.0 | 7.0 | 0.00 | 0.35 | 0.11 | 90 | 1014.4 |
| 20260505164903 | 53 | 133 | 3.0 | 9.0 | 0.00 | 0.40 | 0.11 | 90 | 1014.4 |
| 20260505164403 | 53 | 153 | 5.0 | 9.0 | 0.00 | 0.43 | 0.11 | 90 | 1014.4 |
| 20260505163903 | 53 | 183 | 7.0 | 12.0 | 0.00 | 0.44 | 0.11 | 90 | 1014.3 |
| 20260505163403 | 53 | 167 | 7.0 | 12.0 | 0.00 | 0.46 | 0.11 | 90 | 1014.4 |
| 20260505162903 | 54 | 157 | 7.0 | 12.0 | 0.00 | 0.48 | 0.11 | 90 | 1014.3 |
| 20260505162403 | 54 | 138 | 5.0 | 12.0 | 0.00 | 0.49 | 0.11 | 89 | 1014.3 |
| 20260505161903 | 54 | 191 | 5.0 | 10.0 | 0.00 | 0.49 | 0.11 | 90 | 1014.2 |
| 20260505160903 | 54 | 188 | 7.0 | 12.0 | 0.00 | 0.49 | 0.11 | 89 | 1014.2 |
| 20260505160404 | 53 | 181 | 10.0 | 12.0 | 0.00 | 0.49 | 0.11 | 89 | 1014.2 |
| 20260505152903 | 55 | 193 | 6.0 | 10.0 | 0.00 | 0.54 | 0.11 | 88 | 1014.1 |
| 20260505152404 | 55 | 206 | 1.0 | 5.0 | 0.00 | 0.54 | 0.11 | 89 | 1014.1 |
| 20260505151904 | 54 | 161 | 2.0 | 5.0 | 0.00 | 0.54 | 0.11 | 89 | 1014.0 |
| 20260505150903 | 54 | 146 | 1.0 | 3.0 | 0.00 | 0.54 | 0.11 | 90 | 1014.1 |
| 20260505150403 | 54 | 183 | 1.0 | 6.0 | 0.00 | 0.54 | 0.11 | 90 | 1014.1 |
| 20260505140403 | 55 | 5 | 2.0 | 3.0 | 0.09 | 0.54 | 0.11 | 89 | 1014.0 |
| 20260505124903 | 55 | 278 | 7.0 | 14.0 | 0.01 | 0.45 | 0.02 | 86 | 1013.9 |
| 20260505124404 | 54 | 290 | 7.0 | 13.0 | 0.01 | 0.45 | 0.02 | 87 | 1013.8 |
| 20260505123904 | 54 | 306 | 2.0 | 8.0 | 0.01 | 0.45 | 0.02 | 88 | 1013.9 |
| 20260505123404 | 53 | 300 | 3.0 | 8.0 | 0.01 | 0.45 | 0.02 | 88 | 1013.9 |
| 20260505122903 | 53 | 288 | 2.0 | 8.0 | 0.01 | 0.45 | 0.02 | 88 | 1013.9 |
| 20260505122403 | 53 | 311 | 2.0 | 7.0 | 0.01 | 0.45 | 0.02 | 88 | 1013.9 |
| 20260505121904 | 53 | 293 | 2.0 | 8.0 | 0.01 | 0.45 | 0.02 | 88 | 1013.9 |
| 20260505121404 | 52 | 293 | 5.0 | 8.0 | 0.01 | 0.45 | 0.02 | 88 | 1013.9 |
| 20260505120903 | 52 | 304 | 1.0 | 7.0 | 0.01 | 0.45 | 0.02 | 88 | 1013.9 |
| 20260505120403 | 52 | 290 | 5.0 | 12.0 | 0.01 | 0.45 | 0.02 | 86 | 1014.0 |
| 20260505115903 | 52 | 327 | 9.0 | 16.0 | 0.00 | 0.44 | 0.02 | 85 | 1014.0 |
| 20260505115403 | 52 | 316 | 14.0 | 20.0 | 0.00 | 0.44 | 0.02 | 84 | 1014.0 |
| 20260505113903 | 57 | 289 | 7.0 | 15.0 | 0.00 | 0.44 | 0.02 | 79 | 1013.6 |
| 20260505113403 | 56 | 319 | 9.0 | 16.0 | 0.00 | 0.44 | 0.02 | 79 | 1013.6 |
| 20260505112904 | 56 | 302 | 8.0 | 13.0 | 0.01 | 0.44 | 0.02 | 80 | 1013.6 |
| 20260505111904 | 55 | 300 | 4.0 | 12.0 | 0.01 | 0.44 | 0.02 | 82 | 1013.8 |
| 20260505111404 | 55 | 306 | 9.0 | 15.0 | 0.01 | 0.44 | 0.02 | 81 | 1013.8 |
| 20260505110904 | 55 | 306 | 9.0 | 15.0 | 0.01 | 0.44 | 0.02 | 84 | 1013.8 |
| 20260505110403 | 55 | 294 | 6.0 | 13.0 | 0.02 | 0.44 | 0.02 | 85 | 1013.9 |
| 20260505101903 | 56 | 277 | 9.0 | 18.0 | 0.01 | 0.43 | 0.01 | 78 | 1013.9 |
| 20260505101403 | 56 | 275 | 7.0 | 13.0 | 0.01 | 0.43 | 0.01 | 77 | 1013.8 |
| 20260505100904 | 56 | 235 | 3.0 | 14.0 | 0.01 | 0.43 | 0.01 | 78 | 1013.8 |
| 20260505100403 | 55 | 223 | 6.0 | 12.0 | 0.00 | 0.43 | 0.00 | 79 | 1013.8 |
| 20260505095903 | 55 | 221 | 3.0 | 12.0 | 0.00 | 0.43 | 0.00 | 79 | 1013.8 |
| 20260505095403 | 55 | 275 | 9.0 | 14.0 | 0.00 | 0.43 | 0.00 | 79 | 1013.9 |
| 20260505094903 | 55 | 240 | 8.0 | 15.0 | 0.00 | 0.43 | 0.00 | 79 | 1013.8 |
| 20260505094403 | 55 | 260 | 10.0 | 16.0 | 0.00 | 0.43 | 0.00 | 80 | 1013.9 |
| 20260505093404 | 54 | 292 | 10.0 | 16.0 | 0.00 | 0.43 | 0.00 | 83 | 1013.9 |
| 20260505092909 | 54 | 298 | 5.0 | 13.0 | 0.00 | 0.43 | 0.00 | 85 | 1013.9 |
| 20260505092403 | 54 | 262 | 7.0 | 13.0 | 0.00 | 0.43 | 0.00 | 86 | 1013.9 |
| 20260505091904 | 53 | 275 | 5.0 | 10.0 | 0.00 | 0.43 | 0.00 | 87 | 1013.9 |
| 20260505091404 | 53 | 273 | 4.0 | 12.0 | 0.00 | 0.43 | 0.00 | 88 | 1013.9 |
| 20260505090903 | 53 | 232 | 2.0 | 8.0 | 0.00 | 0.43 | 0.00 | 89 | 1013.9 |
| 20260505085904 | 52 | 287 | 1.0 | 6.0 | 0.00 | 0.43 | 0.00 | 89 | 1013.9 |
| 20260505085403 | 53 | 224 | 3.0 | 8.0 | 0.00 | 0.43 | 0.00 | 90 | 1014.0 |
| 20260505084903 | 52 | 263 | 2.0 | 6.0 | 0.00 | 0.43 | 0.00 | 91 | 1014.0 |
| 20260505084403 | 52 | 207 | 1.0 | 5.0 | 0.00 | 0.43 | 0.00 | 91 | 1014.0 |
| 20260505083903 | 51 | 252 | 2.0 | 8.0 | 0.00 | 0.43 | 0.00 | 91 | 1014.0 |
| 20260505083403 | 51 | 219 | 5.0 | 7.0 | 0.00 | 0.43 | 0.00 | 91 | 1014.1 |
| 20260505082904 | 51 | 251 | 3.0 | 8.0 | 0.00 | 0.43 | 0.00 | 91 | 1014.1 |
| 20260505082403 | 51 | 258 | 3.0 | 7.0 | 0.00 | 0.43 | 0.00 | 92 | 1014.1 |
| 20260505081403 | 51 | 227 | 1.0 | 2.0 | 0.00 | 0.43 | 0.00 | 93 | 1014.0 |
| 20260505080403 | 50 | 227 | 0.0 | 2.0 | 0.00 | 0.43 | 0.00 | 94 | 1013.9 |
| 20260505075903 | 50 | 216 | 2.0 | 3.0 | 0.00 | 0.43 | 0.00 | 94 | 1013.9 |
| 20260505075403 | 50 | 240 | 1.0 | 3.0 | 0.00 | 0.43 | 0.00 | 95 | 1014.0 |
| 20260505074904 | 50 | 243 | 1.0 | 3.0 | 0.00 | 0.43 | 0.00 | 96 | 1014.0 |
| 20260505074406 | 49 | 242 | 2.0 | 3.0 | 0.00 | 0.43 | 0.00 | 96 | 1013.9 |
| 20260505073906 | 49 | 191 | 0.0 | 2.0 | 0.00 | 0.43 | 0.00 | 97 | 1013.9 |
| 20260505073403 | 49 | 189 | 0.0 | 0.0 | 0.00 | 0.43 | 0.00 | 97 | 1013.9 |
| 20260505072903 | 49 | 189 | 0.0 | 1.0 | 0.00 | 0.43 | 0.00 | 97 | 1013.9 |
| 20260505071903 | 48 | 189 | 3.0 | 5.0 | 0.00 | 0.43 | 0.00 | 97 | 1013.8 |
| 20260505071404 | 48 | 184 | 5.0 | 7.0 | 0.00 | 0.43 | 0.00 | 97 | 1013.8 |
| 20260505070903 | 48 | 196 | 6.0 | 8.0 | 0.00 | 0.43 | 0.00 | 97 | 1013.8 |
| 20260505070403 | 48 | 199 | 5.0 | 7.0 | 0.00 | 0.43 | 0.00 | 97 | 1013.8 |
| 20260505065903 | 48 | 192 | 0.0 | 2.0 | 0.00 | 0.43 | 0.00 | 98 | 1013.8 |
| 20260505065403 | 48 | 192 | 1.0 | 3.0 | 0.00 | 0.43 | 0.00 | 98 | 1013.8 |
| 20260505064903 | 48 | 192 | 0.0 | 0.0 | 0.00 | 0.43 | 0.00 | 98 | 1013.7 |
| 20260505064403 | 48 | 192 | 1.0 | 3.0 | 0.00 | 0.43 | 0.00 | 98 | 1013.7 |
| 20260505063903 | 48 | 192 | 2.0 | 3.0 | 0.00 | 0.43 | 0.00 | 98 | 1013.7 |
| 20260505063403 | 48 | 191 | 3.0 | 3.0 | 0.00 | 0.43 | 0.00 | 98 | 1013.7 |
| 20260505062904 | 48 | 196 | 0.0 | 0.0 | 0.00 | 0.43 | 0.00 | 98 | 1013.7 |
| 20260505062403 | 48 | 197 | 0.0 | 1.0 | 0.00 | 0.43 | 0.00 | 98 | 1013.7 |
| 20260505061903 | 48 | 197 | 1.0 | 3.0 | 0.00 | 0.43 | 0.00 | 98 | 1013.6 |
| 20260505061403 | 48 | 198 | 1.0 | 2.0 | 0.00 | 0.43 | 0.00 | 98 | 1013.7 |
| 20260505060903 | 48 | 192 | 0.0 | 0.0 | 0.00 | 0.43 | 0.00 | 98 | 1013.7 |
| 20260505060403 | 47 | 192 | 2.0 | 3.0 | 0.00 | 0.43 | 0.00 | 98 | 1013.6 |
| 20260505055904 | 47 | 188 | 4.0 | 7.0 | 0.00 | 0.43 | 0.00 | 98 | 1013.7 |
| 20260505055403 | 48 | 180 | 2.0 | 5.0 | 0.00 | 0.43 | 0.00 | 98 | 1013.6 |
| 20260505054903 | 48 | 158 | 1.0 | 5.0 | 0.00 | 0.43 | 0.00 | 98 | 1013.6 |
| 20260505054403 | 48 | 184 | 1.0 | 3.0 | 0.00 | 0.43 | 0.00 | 98 | 1013.6 |
| 20260505053904 | 47 | 185 | 3.0 | 5.0 | 0.00 | 0.43 | 0.00 | 99 | 1013.6 |
| 20260505053403 | 47 | 185 | 2.0 | 6.0 | 0.00 | 0.43 | 0.00 | 99 | 1013.6 |
| 20260505051903 | 47 | 190 | 4.0 | 5.0 | 0.00 | 0.43 | 0.00 | 99 | 1013.5 |
| 20260505050903 | 48 | 185 | 2.0 | 5.0 | 0.00 | 0.43 | 0.00 | 99 | 1013.5 |
| 20260505050403 | 48 | 201 | 0.0 | 3.0 | 0.00 | 0.43 | 0.00 | 99 | 1013.5 |
| 20260505040903 | 48 | 220 | 0.0 | 0.0 | 0.00 | 0.43 | 0.00 | 99 | 1013.5 |
| 20260505035403 | 47 | 217 | 0.0 | 2.0 | 0.00 | 0.43 | 0.00 | 99 | 1013.6 |
| 20260505034403 | 47 | 218 | 1.0 | 3.0 | 0.00 | 0.43 | 0.00 | 99 | 1013.7 |
| 20260505033403 | 47 | 217 | 1.0 | 2.0 | 0.00 | 0.43 | 0.00 | 99 | 1013.8 |
| 20260505032903 | 47 | 191 | 0.0 | 3.0 | 0.00 | 0.43 | 0.00 | 99 | 1013.8 |
| 20260505031903 | 47 | 178 | 2.0 | 5.0 | 0.00 | 0.43 | 0.00 | 99 | 1013.7 |
| 20260505031403 | 47 | 184 | 0.0 | 0.0 | 0.00 | 0.43 | 0.00 | 99 | 1013.8 |
| 20260505030903 | 48 | 185 | 0.0 | 0.0 | 0.00 | 0.43 | 0.00 | 99 | 1013.8 |
| 20260505030404 | 48 | 185 | 2.0 | 3.0 | 0.00 | 0.43 | 0.00 | 99 | 1013.8 |
| 20260505025403 | 48 | 184 | 0.0 | 0.0 | 0.00 | 0.43 | 0.00 | 99 | 1013.8 |
| 20260505024903 | 48 | 184 | 0.0 | 0.0 | 0.00 | 0.43 | 0.00 | 99 | 1013.8 |